INTELSAT 33E DEB, 64397

Orbit data source: Space-Track

INTELSAT 33E DEB, 64397 is space debris in GEO originally from a launch on Wed, 24 Aug 2016 UTC launched from the French Guiana (FRGUI). Debris objects in space refer to the collection of defunct objects orbiting the Earth. Examples of debris include non-operational satellites, rocket bodies, and fragments generated from explosions, collisions, or faulty payload assembly.

Not visible in the next 10 days
Identifier
64397, 2016-053AB
Orbit
GEO
Last TLE update
1 day ago
Origin
Flag of UnknownINTELU (Unknown / ITSO)
Manufacturer
Boeing/ES
Mission
Spacecraft
Bus & Motor
Unknown
Mass
Unknown
Launch date (UTC)
2016-08-24 (9 years ago)
Launch vehicle
Unknown
Launch site
French Guiana (FRGUI)
Object type
Payload
Rocket body
Debris
Shape & HBR
Unknown
Radar Cross Section
RCS unknown

Expand to show TLE details & history

TLE from 1 day ago
0 INTELSAT 33E DEB
1 64397U 16053AB  25181.09007495  .00000117  00000-0  00000-0 0  9994
2 64397   0.6270  81.2762 0052482  77.5472 201.3802  0.99469084  2406
Epoch: 2025-06-30T02:09Z
TLE epoch observation values (Epoch: 2025-06-30T02:09:42.475Z)
Latitude
-0.62825°
Longitude
49.16877°
Altitude
36,219.266 km
Speed
3.052 km/s
True Right ascension
00h 00m 00s
True Declination
0° 37' 39"
Sunlit
Object was in daylight at epoch
Visualization orbit readout
Latitude
0.40884°
Longitude
168.61262°
Altitude
35,839.838 km
Speed
3.079 km/s
Apparent Right ascension
08h 09m 45s
Apparent Declination
-4° 37' 54"
Sunlit
Object is in daylight
Visualization observer readout
Local Sidereal Time
21:56:45
Azimuth
41.384° NE
Elevation
-47.262°
Doppler factor
1
Orbital elements
Apogee altitude
36,236.681 km
Perigee altitude
35,791.714 km
Semi-major axis
42,392.335 km
Eccentricity
0.00525
Inclination
0.627°
RAAN
81.2762°
Arg. of periapsis
77.5472°
True anomaly
Unknown
Mean anomaly
201.3802°
Eccentric anomaly
Unknown
Mean motion
0.24866 °/min
Orbital period
1,447.74 mins
BSTAR
0
Loading historical data...
64397 neighbors
Loading maneuver chart data...
Loading SW <> Apogee altitude chart data...
Loading historical data...
Loading historical data...
Loading historical data...
Loading historical data...
Loading historical data...
Loading historical data...
Loading historical data...

INTELSAT 33E DEB Visibility

Observer location: undefined°, undefined°

INTELSAT 33E DEB is likely not visible in the next few days
Span
Click to sort rows by Start time (UTC) header in descending order
Start Az.
Max El. time (UTC)
Max El. Az.
Max El.
End time (UTC)
End Az.
|